Regional Weather Roundup
Issued by NWS Huntsville, AL

Home | Current Version | Previous Version | Text Only | Print | Product List | Glossary On
Versions: 1 2 3 4 5 6 7 8 9 10 11 12 13 14 15 16 17 18 19 20 21 22 23 24 25 26 27 28 29 30 31 32 33 34 35 36 37 38 39 40 41 42 43 44 45 46 47 48 49 50
000
ASUS44 KHUN 021010
RWRHUN

WEATHER ROUNDUP FOR THE TENNESSEE VALLEY
NATIONAL WEATHER SERVICE HUNTSVILLE AL
500 AM CDT SUN AUG 02 2015

ALZ001>004-021100-
NORTHWEST ALABAMA

CITY           SKY/WX    TMP DP  RH WIND       PRES   REMARKS
BANKHEAD NF      N/A     68  65  89 CALM        N/A
SHOALS AIRPORT CLEAR     69  66  90 NW3       29.97S
SHOALS TVA RES   N/A     68 N/A N/A MISG        N/A
$$

ALZ005>007-016-021100-
NORTH CENTRAL ALABAMA

CITY           SKY/WX    TMP DP  RH WIND       PRES   REMARKS
DECATUR AP     CLEAR     70  65  84 NE5       29.96S
HUNTSVILLE AP  CLEAR     69  64  84 CALM      29.96R
HUN NWS/UAH      N/A     73  64  73 NE2         N/A
MERIDIANVILLE  CLEAR     64  61  88 CALM      29.97S
REDSTONE ARSN  CLEAR     69  65  86 N3        29.95S
VINEMONT AP    FAIR      61  60  97 CALM      29.99S
$$

ALZ008>010-021100-
NORTHEAST ALABAMA

CITY           SKY/WX    TMP DP  RH WIND       PRES   REMARKS
ALBERTVILLE    CLEAR     66  66 100 NE6       29.96S
FORT PAYNE     CLEAR     61  59  94 CALM      29.96S
SCOTTSBORO AP  CLEAR     64  63  94 CALM      29.97S
SCOTTSBORO HCN   N/A     63 N/A N/A MISG        N/A
VALLEY HEAD      N/A     61 N/A N/A MISG        N/A
$$

TNZ076-096-097-021100-
SOUTHEASTERN MIDDLE TENNESSEE

CITY           SKY/WX    TMP DP  RH WIND       PRES   REMARKS
TULLAHOMA      CLEAR     63  59  88 CALM      30.00R
WINCHESTER     MOCLDY    61  61 100 CALM      29.99R VSB 1
$$

...SURROUNDING SITES...

CITY           SKY/WX    TMP DP  RH WIND       PRES   REMARKS
ATLANTA        PTCLDY    73  60  63 CALM      29.94R
ANNISTON       CLEAR     65  61  87 NE3       29.94S
BIRMINGHAM     CLEAR     68  64  87 CALM      29.96R
CHATTANOOGA    PTCLDY    68  64  87 CALM      29.97R
DALTON         CLEAR     63  63 100 CALM      29.95S
GADSDEN        CLEAR     64  57  77 CALM      29.94R
GOLDEN TRNGL   CLEAR     66  63  88 NW3       29.92S
HALEYVILLE     FAIR      65  65 100 CALM      29.99F
JACKSON TN     CLEAR     70  66  87 CALM      29.96F
MEMPHIS        CLEAR     78  67  68 E3        29.95F
NASHVILLE      PTCLDY    64  63  96 CALM      29.98S
ROME           CLEAR     64  61  90 CALM      29.95R
SAVANNAH       CLEAR     66  32  28 CALM      29.97R
TUPELO         CLEAR     70  66  87 NE7       29.94S
TUSCALOOSA     CLEAR     67  62  84 CALM      29.92S
$$

...GULF COAST WEATHER...

CITY           SKY/WX    TMP DP  RH WIND       PRES   REMARKS
GULFPORT       CLEAR     72  65  78 NW3       29.86R
PASCAGOULA     CLEAR     71  69  93 CALM      29.86R
MOBILE         CLEAR     72  68  87 CALM      29.87R
GULF SHORES    SUNNY     74  70  86 CALM      29.85R
PENSACOLA      CLEAR     75  72  90 NW6       29.84R
DESTIN         CLEAR     79  75  87 N7        29.83R
PANAMA CITY    CLEAR     76  73  92 NE5       29.83R
APPALACHICOLA  CLEAR     78  74  87 N5        29.80F
$$



USA.gov is the U.S. government's official web portal to all federal, state and local government web resources and services.